This is the latest recevied weather packets stored in our database for station/object WX6HNX-6. If no packets are shown the sender has not sent any weather packets the latest 1 day(s).
| Time | Temp. | Humidity | Pressure | Rain* | Wind** | Luminosity | Snow |
|---|---|---|---|---|---|---|---|
| 1778077414 | 11.67° C | 81% | 1020.5 hPa | 0 mm | 1.34 m/s, 242° | - | - |
| 1778077114 | 11.67° C | 81% | 1020.4 hPa | 0 mm | 1.34 m/s, 245° | - | - |
| 1778076515 | 11.11° C | 81% | 1020.4 hPa | 0 mm | 1.79 m/s, 244° | - | - |
| 1778076215 | 10.56° C | 81% | 1020.4 hPa | 0 mm | 1.79 m/s, 242° | - | - |
| 1778075914 | 10.56° C | 81% | 1020.3 hPa | 0 mm | 1.34 m/s, 240° | - | - |
| 1778075615 | 10.56° C | 81% | 1020.3 hPa | 0 mm | 1.34 m/s, 246° | - | - |
| 1778075315 | 10° C | 81% | 1020.2 hPa | 0 mm | 0.89 m/s, 239° | - | - |
| 1778075014 | 10° C | 81% | 1020.2 hPa | 0 mm | 1.34 m/s, 234° | - | - |
| 1778074715 | 10° C | 81% | 1020.1 hPa | 0 mm | 1.34 m/s, 236° | - | - |
| 1778074414 | 9.44° C | 81% | 1020.1 hPa | 0 mm | 0.89 m/s, 242° | - | - |
| 1778074115 | 9.44° C | 81% | 1020 hPa | 0 mm | 0.89 m/s, 245° | - | - |
| 1778073639 | 9.44° C | 81% | 1019.9 hPa | 0 mm | 0.89 m/s, 234° | - | - |
| 1778073340 | 9.44° C | 80% | 1019.9 hPa | 0 mm | 0.89 m/s, 229° | - | - |
| 1778073040 | 9.44° C | 80% | 1019.8 hPa | 0 mm | 0.89 m/s, 229° | - | - |
| 1778072267 | 10° C | 80% | 1019.7 hPa | 0 mm | 1.34 m/s, 240° | - | - |
| 1778071967 | 10° C | 80% | 1019.6 hPa | 0 mm | 1.34 m/s, 237° | - | - |
| 1778071667 | 10° C | 80% | 1019.6 hPa | 0 mm | 1.34 m/s, 234° | - | - |
| 1778071367 | 10° C | 80% | 1019.6 hPa | 0 mm | 1.34 m/s, 235° | - | - |
| 1778071067 | 10° C | 80% | 1019.6 hPa | 0 mm | 0.89 m/s, 249° | - | - |
| 1778070766 | 10° C | 80% | 1019.5 hPa | 0 mm | 0.45 m/s, 256° | - | - |
| 1778070466 | 10° C | 80% | 1019.5 hPa | 0 mm | 0.45 m/s, 257° | - | - |
| 1778070167 | 10° C | 79% | 1019.4 hPa | 0 mm | 0.89 m/s, 258° | - | - |
| 1778069740 | 10° C | 79% | 1019.3 hPa | 0 mm | 0.89 m/s, 249° | - | - |
| 1778069440 | 10° C | 79% | 1019.4 hPa | 0 mm | 0.89 m/s, 247° | - | - |
| 1778069140 | 10° C | 79% | 1019.4 hPa | 0 mm | 0.45 m/s, 240° | - | - |
* Rain latest hour (hover to see other rain measurements)
** Current wind speed in m/s (hover to see current wind gust speed)